{"data":{"norad_id":32791,"intl_designator":"2008-021J","name":"SEEDS II (CO-66)","alt_names":[],"object_type":"PAYLOAD","status":"ACTIVE","operator":null,"country":"JPN","launch_date":"2008-04-28","launch_site_code":"SRILR","launch_vehicle":null,"mission":null,"orbit_class":"UNKNOWN","rcs_meters":0.049,"size_class":null,"mass_kg":null,"dimensions":null,"purposes":["comms","tech_demo"],"wikipedia_slug":null,"has_3d_model":false,"image_url":null,"decayed_at":null,"tle_current":{"epoch":"2026-05-24T22:52:41.512800Z","epoch_age_seconds":72382,"freshness":"FRESH","line1":"1 32791U 08021J   26144.95325825  .00016756  00000+0  54710-3 0  9993","line2":"2 32791  97.7523 141.7583 0004267  60.0915 300.0749 15.31833759983734","mean_motion":15.31833759,"eccentricity":0.0004267,"inclination_deg":97.7523,"raan_deg":141.7583,"arg_perigee_deg":60.0915,"mean_anomaly_deg":300.0749,"bstar":0.0005471,"rev_number":98373,"period_min":94.00497877394,"perigee_km":467.41904993243,"apogee_km":473.26354130992,"semimajor_km":6848.4782956212,"source":"CELESTRAK","updated_at":"2026-05-25T13:38:25.487556Z"}}}